Location: Unspecified
(41.5000°N, 0.0000°E)
Time: 00:13:00
(UTC+00:00)

A-11 Canister half - Pass Details

Date: 29 June 2019
Orbit: 1526 x 1683 km, 47.3° (Epoch: 19 July)

Event Time Altitude Azimuth Distance (km) Brightness Sun altitude
Exits shadow 00:22:55 21° 134° (SE) 2,981 10.1 -25.1°
Maximum altitude 00:23:44 22° 127° (SE) 2,962 10.2 -25.1°
Drops below altitude 10° 00:30:22 10° 82° (E) 3,748 11.2 -24.9°
Sets 00:34:18 0° 68° (ENE) 4,715 11.9 -24.9°
